Tracking 30402 objects as of 12-May-2025
HD Live streaming from Space Station
objects crossing your sky now

THOR ABLESTAR DEB

Track THOR ABLESTAR DEB now!
10-day predictions


NORAD ID: 13511
Int'l Code: 1961-015KU
Perigee: 927.0 km
Apogee: 1,103.7 km
Inclination: 65.8 °
Period: 105.3 minutes
Semi major axis: 7386 km
RCS: 0.0083 m2 (small)
Launch date: June 29, 1961
Source: United States (US)
Launch site: AIR FORCE EASTERN TEST RANGE (AFETR)

Note: This is SATELLITE DEBRIS
Your satellite tracking list
Your tracking list is empty




NASA's NSSDC Master Catalog

Two Line Element Set (TLE):
1 13511U 61015KU  25131.43360306  .00000236  00000-0  35524-3 0  9994
2 13511  65.8392 121.9675 0119642   4.4274 149.7802 13.67593936236151
Source of the keplerian elements: AFSPC